Cloud_Cover
1 2 1 0 0 76 100 100 100 76 52 42 100 48 11 11 10 9 2 0 0 0 0 91 100 21 32 87 77 2 0 0 0 0 0 1 8 50 63 12 11 5 17
0 0 0 0 0 2 4 80 12 81 89 6 53 100 94 2 42 0 9 93 39 100 69 0 6 12 6 4 0 0 0 0 0 0 0 0 0 10 30 5 10 97 58
0 0 0 0 82 0 0 0 0 0 2 0 0 5 2 0 0 33 7 85 50 20 0 0 0 6 81 0 0 0 0 0 0 0 0 0 0 0 1 0 0 22 20
2 4 1 3 10 86 2 0 0 0 2 0 0 4 3 19 49 62 98 100 6 0 0 0 1 100 81 0 0 1 30 75 63 1 0 0 0 4 2 0 0 0 0
0 5 5 5 0 2 38 14 0 0 2 0 0 0 13 5 5 30 99 94 0 0 0 16 100 91 1 0 10 97 97 48 100 100 63 57 94 72 47 0 0 0 0
2 0 0 0 0 0 0 0 0 0 15 3 2 0 4 52 16 77 100 37 0 49 3 97 40 0 0 90 58 98 0 45 100 100 100 100 100 3 0 0 0 1 1
3 0 0 0 1 0 0 0 0 0 3 0 5 3 5 5 100 100 100 5 0 64 98 6 0 0 0 10 88 100 100 17 34 100 85 71 1 98 74 65 0 2 67
0 0 0 0 0 0 0 0 0 0 0 0 5 69 100 60 100 100 88 5 5 100 40 0 0 0 0 2 16 79 100 0 0 19 0 95 94 33 12 98 32 42 64
0 0 0 0 0 0 0 0 2 0 0 0 3 100 100 100 100 100 100 12 92 100 0 0 1 68 49 22 89 1 69 3 0 0 38 100 100 100 100 100 21 100 24
0 0 0 0 0 0 0 2 2 0 0 0 0 46 91 93 99 100 100 100 100 50 4 0 82 67 100 92 100 100 100 100 99 99 100 100 100 100 100 100 100 100 7
0 0 0 0 0 0 0 1 3 4 5 1 36 11 5 11 57 88 99 100 100 100 98 5 97 53 100 100 100 100 100 98 0 0 100 100 100 100 100 100 100 72 54
0 0 0 0 0 0 0 6 10 1 5 15 60 98 17 0 1 71 88 100 100 100 100 78 100 50 100 100 100 100 100 84 26 5 67 100 100 100 100 100 100 100 100
0 0 0 0 8 8 22 36 44 33 27 46 94 99 100 94 2 3 77 100 100 100 100 100 99 100 100 100 89 100 51 85 5 6 100 100 100 100 100 100 100 100 100
0 0 0 0 1 26 31 57 51 50 55 56 62 100 100 100 84 0 10 40 100 100 100 100 77 91 97 17 37 37 7 28 7 9 100 100 100 100 100 100 100 100 100
0 0 0 0 0 6 49 70 62 54 76 40 41 92 100 100 100 3 2 74 99 98 100 100 100 86 60 68 78 62 57 68 42 73 100 100 100 100 100 100 100 100 100
0 0 0 0 0 6 41 100 99 100 100 75 24 25 100 100 100 42 0 41 90 100 100 100 100 100 100 100 100 100 100 99 100 100 100 100 100 100 100 100 100 100 100
0 0 0 0 0 2 25 56 100 100 100 100 44 32 95 100 100 100 1 1 99 100 100 100 100 100 100 100 100 100 100 100 100 100 100 100 100 100 100 100 100 68 100
0 0 0 0 0 0 26 89 100 83 100 100 70 73 99 100 100 100 86 0 3 100 100 100 100 100 100 100 100 100 100 100 100 100 100 100 100 100 100 100 99 96 100
0 0 0 0 0 0 61 100 92 62 79 80 78 59 100 100 91 100 100 56 1 12 100 100 100 100 97 94 100 100 100 100 100 100 100 100 100 100 100 100 100 95 28
0 0 0 0 0 43 100 100 100 100 91 46 64 77 61 97 99 100 100 100 40 3 99 100 100 100 100 95 85 100 100 100 100 100 100 100 100 100 100 90 56 5 5
7 0 5 1 88 100 100 100 100 100 100 97 52 50 25 32 77 100 100 100 100 16 62 99 100 100 100 93 100 100 100 100 100 100 100 100 100 100 100 100 35 20 13
100 88 81 78 74 100 100 100 99 100 100 100 100 31 3 19 65 90 100 100 100 100 42 9 100 100 100 100 63 100 100 100 100 100 100 76 100 100 100 100 28 5 7
100 100 100 100 100 100 100 100 76 97 100 100 100 99 53 54 100 100 92 100 100 100 99 7 85 100 100 100 100 97 100 100 100 100 100 100 67 100 100 81 74 82 5
100 100 100 100 100 100 100 100 100 52 93 100 100 100 100 99 100 92 79 99 100 100 100 76 4 100 100 100 100 100 99 74 90 100 100 100 100 99 100 88 54 58 96
76 95 100 100 100 82 54 41 88 99 93 9 14 98 99 90 99 83 60 74 100 100 100 100 37 6 100 100 100 100 100 36 63 95 100 100 84 53 97 94 100 100 100
5 6 52 58 100 100 100 100 99 100 99 35 63 64 72 100 81 100 100 42 100 100 100 100 100 48 98 100 100 100 99 39 6 98 100 92 100 100 100 100 100 100 100